Вернуться в каталог

IRIDIUM 33 DEB

АктивенPO
NORAD 33960·DEBRIS·🇺🇸 United States

Запущен Sep 14, 1997 с Baikonur Cosmodrome

Loading…

Ближайшие Пролёты (ближайшие 24 часа)

TLE

СвежийSource: Space-Track

Эпоха: Sep 13, 2026, 17:55 UTC

1 33960U 97051BV  26256.74681233  .00010353  00000-0  91823-3 0  9996
2 33960  86.2587 158.5653 0002364  96.5216 317.3403 14.96094891929671

Отслеживайте IRIDIUM 33 DEB в реальном времени с AllMySat

Download on the App Store